Location: Christian Reformed Church
(43.0975°N, 93.8113°W)
Time: 21:51:43
(UTC+00:00)

S3M - Pass Details

Date: 13 December 2025
Orbit: 947 x 1004 km, 83.0° (Epoch: 12 January)

Event Time Altitude Azimuth Distance (km) Brightness Sun altitude
Rises 12:19:09 0° 353° (N) 3,661 6.8 -13.9°
Reaches altitude 10° 12:21:41 10° 356° (N) 2,703 6.1 -13.5°
Maximum altitude 12:27:51 73° 81° (E) 997 4.2 -12.4°
Drops below altitude 10° 12:33:55 10° 166° (SSE) 2,662 6.8 -11.4°
Sets 12:36:24 0° 168° (SSE) 3,602 7.5 -11.0°
